SCP
0 0 0 0 0 0 0 0 0 0 0 0 0 0 0 -0 -0 0 0 0 0 0 0 0 0 0 0 0 0 0 0 0 0 0 0 0 0 0 0 0 0 0 0 0
0 0 0 0 0 0 0 0 0 0 0 0 0 0 0 0 0 0 0 0 0 0 0 0 0 0 0 0 0 -0 0 0 0 0 0 0 0 0 0 0 0 0 0 0
0 0 0 0 0 0 -0 0 0 0 0 0 0 0 0 0 0 0 0 0 0 0 0 0 0 0 0 0 0 0 0 0 0 0 0 0 0 0 0 0 0 0 0 0
0 0 0 0 0 0 0 0 0 0 0 0 0 0 0 0 0 0 0 0 0 0 0 0 0 0 0 0 0 0 0 0 0 0 0 0 0 0 0 0 0 0 0 0
0 0 0 0 0 0 0 0 0 0 0 0 0 0 0 0 0 0 0 0 0 0 0 0 0 0 0 0 0 0 0 0 0 0 0 0 0 0 0 0 0 0 0 0
0 0 0 0 0 0 0 0 0 0 -0 -0 -0 -0 0 -0 -0 -0 -0 -0 0 0 0 0 0 0 0 0 0 0 0 0 0 0 0 0 0 0 0 0 0 0 0 0
0 0 0 0 0 0 0 0 0 -0 -0 -0 -0 -0 -0 -0 -0 -0 -0 -0 -0 -0 -0 -0 -0 -0 0 0 0 0 0 0 0 0 0 0 0 0 0 0 0 0 0 0
0 0 0 0 0 0 0 -0 -0 -0 -0 -0 -0 -0 -0 -0 -0 -0 -0 -0 -0 -0 -0 -0 -0 -0 -0 -0 -0 -0 0 0 0 0 0 0 0 0 0 0 0 0 0 0
0 0 0 0 0 0 0 -0 -0 0 -0 -0 -0 -0 -0 -0 -0 -0 -0 -0 -0 -0 -0 -0 -0 -0 -0 -0 -0 -0 -0 -0 -0 0 0 0 0 0 0 0 0 0 0 0
0 0 0 0 0 0 0 0 0 0 0 0 0 0 0 -0 0 0 -0 -0 -0 -0 -0 -0 0 -0 0 -0 -0 -0 -0 -0 -0 -0 0 0 0 0 0 0 0 0 0 0
0 0 0 0 0 0 0 0 0 0 0 0 0 0 0 0 0 0 0 0 -0 -0 -0 -0 -0 -0 -0 -0 -0 0 0 0 0 0 0 0 0 0 0 0 0 0 0 0
0 0 0 0 0 0 0 0 0 0 0 0 0 0 0 0 0 0 0 0 0 -0 -0 -0 -0 -0 -0 -0 -0 -0 0 0 0 0 0 0 0 0 0 0 0 0 0 0
0 0 0 0 0 0 0 0 0 0 0 0 0 0 0 0 0 0 0 0 0 0 -0 -0 -0 -0 0 -0 -0 -0 0 0 0 0 0 0 0 0 0 0 0 0 0 0
0 0 0 0 0 0 0 0 0 0 0 0 0 0 0 0 0 0 0 0 0 0 0 0 0 0 0 0 0 0 0 0 0 0 0 0 0 0 0 0 0 0 0 0
0 0 0 0 0 0 0 0 0 0 0 0 0 0 0 0 0 0 0 0 0 0 0 0 0 0 0 0 0 0 0 0 0 0 0 0 0 0 0 0 0 0 0 0
0 0 0 0 0 0 0 0 0 0 0 0 0 0 0 0 0 0 0 0 0 0 0 0 0 0 0 0 0 0 0 0 0 0 0 0 0 0 0 0 0 0 0 0
0 0 0 0 0 0 0 0 0 0 0 0 0 0 0 0 0 0 0 0 0 0 0 0 0 0 0 0 0 0 0 0 0 0 0 0 0 0 0 0 0 0 0 0
0 0 0 0 0 0 0 0 0 0 0 0 -0 -0 0 0 0 0 0 0 0 0 0 0 0 0 0 0 0 0 0 0 0 0 0 0 0 0 0 0 0 0 0 0
0 0 0 0 0 0 0 0 0 -0 -0 -0 -0 -0 -0 0 0 0 0 0 0 0 0 0 0 0 0 0 0 0 0 0 0 0 0 0 0 0 0 0 0 0 0 0
0 0 0 0 0 0 0 0 -0 -0 -0 -0 -0 0 0 0 0 0 0 0 0 0 0 0 0 0 0 0 0 0 0 0 0 0 0 0 0 0 0 0 0 0 0 0
0 0 0 0 0 0 -0 -0 -0 -0 -0 -0 0 0 0 0 0 0 0 0 0 0 0 0 0 0 0 0 0 0 0 0 0 0 0 0 0 0 0 0 0 0 0 0
0 0 0 0 -0 -0 -0 -0 0 -0 -0 0 0 0 0 0 0 0 0 0 0 -0 -0 0 0 0 -0 -0 0 0 0 0 0 0 0 0 0 0 0 0 0 0 0 0
0 0 0 -0 -0 -0 -0 0 0 0 -0 -0 0 0 0 0 0 0 0 0 0 -0 0 -0 -0 0 0 0 -0 -0 -0 0 0 0 0 0 0 0 0 0 0 0 0 0
0 0 -0 -0 -0 -0 -0 0 -0 -0 -0 -0 0 0 0 0 0 0 0 0 0 0 0 0 -0 -0 0 -0 -0 0 0 0 0 0 0 -0 0 0 0 0 0 0 0 0
-0 -0 -0 -0 -0 -0 0 0 0 -0 -0 0 0 0 0 0 0 0 0 0 0 0 0 0 0 0 0 0 0 -0 -0 -0 -0 -0 -0 -0 -0 0 0 0 0 0 0 0
-0 -0 -0 -0 0 0 0 0 0 -0 -0 0 0 0 0 0 0 0 0 0 0 0 0 0 0 0 0 -0 -0 -0 -0 -0 -0 0 0 -0 -0 -0 -0 -0 -0 -0 -0 0
-0 0 0 0 0 0 0 0 -0 -0 -0 0 0 0 0 0 0 0 0 0 0 0 0 0 0 0 0 0 0 0 0 0 0 0 0 0 0 0 -0 -0 0 0 0 0
Wind_Speed_500mb
41 31 32 40 49 57 60 52 45 44 49 45 45 29 43 49 59 62 65 66 71 68 66 69 67 66 65 73 80 88 92 95 102 97 101 108 107 105 107 106 111 108 99 95
43 44 33 36 25 30 26 31 41 48 59 40 47 63 64 49 58 63 61 58 58 69 78 81 80 79 80 79 83 89 96 98 98 107 112 107 111 105 104 106 107 102 100 96
40 33 28 30 36 34 41 27 17 17 14 25 37 38 50 39 59 54 53 54 59 63 69 80 86 87 92 91 88 81 84 92 81 86 108 110 103 104 102 106 100 96 94 97
33 34 44 23 4 11 9 16 22 17 17 24 32 48 51 31 62 59 57 50 62 53 75 81 80 85 91 90 88 91 71 67 72 80 88 98 95 99 100 98 92 91 92 91
5 11 23 30 13 12 10 8 17 8 8 18 32 46 22 49 55 56 47 55 61 71 72 83 84 83 86 93 85 85 87 73 69 63 69 84 87 88 88 90 90 92 91 88
5 7 9 4 13 18 14 12 9 8 5 14 29 23 28 58 54 52 64 66 73 70 75 83 80 82 82 80 88 75 78 89 83 66 60 64 68 74 81 85 86 83 88 84
8 8 14 6 16 10 7 14 38 5 9 14 9 21 63 70 63 63 70 76 74 78 82 82 86 83 87 83 84 88 77 75 84 82 67 55 53 60 70 79 80 79 82 85
3 1 18 12 21 3 12 39 38 17 31 33 41 51 55 59 64 71 72 75 79 81 87 91 92 89 87 89 86 85 83 81 68 76 75 63 52 50 59 69 75 75 80 85
16 12 17 62 55 63 39 40 36 32 42 38 44 54 54 64 69 73 75 78 83 91 101 102 102 99 103 97 90 81 83 79 73 59 65 70 62 55 57 67 73 73 78 83
3 23 33 44 53 64 66 47 42 46 48 40 41 51 57 64 76 79 81 87 89 94 102 112 109 115 108 105 99 88 90 91 77 68 66 66 67 65 58 64 69 74 81 86
20 32 44 62 57 56 46 44 52 54 52 56 46 61 58 68 77 81 87 93 94 104 111 120 118 117 117 111 103 102 94 90 90 77 66 69 78 76 75 73 69 72 84 84
29 55 39 41 62 50 40 44 50 50 61 62 58 68 73 86 88 84 90 97 97 103 113 127 124 122 119 113 106 99 93 88 82 81 75 69 68 79 80 82 80 76 82 81
52 73 62 67 52 47 41 41 44 52 62 74 84 78 77 87 98 96 104 105 102 108 113 121 127 124 115 108 100 96 92 85 74 81 84 78 70 77 74 77 74 70 69 70
51 49 42 45 26 36 42 53 62 72 76 75 80 87 80 88 105 99 93 93 95 106 120 115 114 117 105 94 85 84 82 77 72 69 88 84 80 74 65 69 72 76 57 59
32 27 28 39 43 43 48 57 68 77 85 93 85 84 82 85 87 93 90 91 95 99 103 100 102 106 89 78 74 77 79 80 73 63 79 79 73 73 62 63 64 62 60 55
24 29 32 36 46 53 58 63 71 83 84 89 95 100 99 88 87 87 87 85 88 94 94 95 97 91 80 75 75 79 79 76 69 60 76 78 74 69 61 63 60 59 65 80
27 26 40 49 53 61 65 67 65 81 94 97 100 95 90 90 86 82 82 83 85 91 90 89 94 86 77 74 72 71 70 71 58 55 71 75 70 68 62 60 60 62 71 82
26 32 38 47 58 68 77 78 81 83 88 89 87 84 84 81 84 87 84 82 80 80 81 77 64 60 56 54 56 61 59 57 50 59 62 64 59 56 54 55 62 70 75 76
30 39 43 49 54 63 72 77 77 77 77 74 78 82 82 77 77 75 72 70 66 70 67 61 55 50 47 43 37 40 32 36 53 56 52 47 45 46 54 63 71 78 87 86
40 44 50 56 58 59 68 68 67 67 63 64 69 73 76 74 68 68 60 56 56 57 55 51 45 40 35 31 30 21 17 20 29 33 34 37 44 53 64 76 80 81 83 82
48 52 57 59 62 58 55 55 55 57 57 53 54 57 62 65 60 58 54 58 56 52 46 40 35 32 29 24 17 8 1 11 20 28 37 45 51 59 66 68 76 86 89 87
52 54 56 55 55 57 48 45 44 47 45 43 40 44 53 58 59 57 43 47 51 46 42 40 38 33 26 19 14 10 7 11 18 28 36 41 45 53 59 66 72 77 76 73
48 47 47 45 44 45 42 39 37 34 33 30 33 38 42 46 47 58 68 59 51 45 37 37 36 33 24 18 17 15 15 14 17 20 25 30 38 44 50 54 59 61 65 64
39 36 37 34 33 35 37 33 27 22 20 21 24 28 34 37 35 42 44 46 45 43 40 38 35 30 29 30 28 26 24 22 21 21 21 22 26 29 33 39 49 53 52 54
28 29 28 30 29 30 30 25 20 15 14 15 18 20 23 28 36 42 42 43 44 47 49 48 46 44 44 42 41 41 41 39 37 35 35 36 38 42 47 48 45 43 44 45
23 25 24 20 20 24 23 19 17 16 16 17 18 19 21 26 30 33 36 39 41 43 45 46 46 46 46 46 46 45 45 43 40 40 39 40 40 40 40 40 39 39 36 33
19 21 22 19 19 20 19 18 15 17 19 20 19 21 23 26 27 28 30 33 35 38 40 41 43 43 41 39 38 37 36 35 34 33 33 33 33 32 31 29 27 24 21 18
Wind_Direction_500mb
281 293 290 283 286 284 272 262 251 261 276 278 278 351 3 19 34 20 11 5 1 355 353 352 345 334 318 308 302 302 303 284 265 257 260 259 254 253 251 249 248 244 239 234
273 284 279 287 279 269 279 291 281 287 286 32 19 11 4 21 17 11 0 351 347 345 353 352 348 348 343 336 321 308 298 290 290 271 261 261 256 252 251 249 244 241 237 234
272 278 296 283 264 278 277 350 326 312 38 8 6 2 346 7 0 357 346 344 341 342 339 337 338 341 338 338 342 332 298 288 291 285 272 263 256 254 249 246 244 239 235 231
274 293 274 275 234 97 105 101 74 68 43 10 347 333 327 321 347 345 337 337 339 330 326 326 326 327 325 331 336 341 344 313 302 290 282 268 261 253 247 244 244 241 234 232
225 219 279 290 356 19 13 76 56 25 339 333 333 325 324 347 339 326 328 328 324 327 325 319 328 326 319 319 328 334 342 348 331 312 292 274 261 253 248 243 239 234 230 229
326 259 248 100 330 273 242 237 246 208 320 331 336 337 318 333 327 320 320 327 329 330 326 320 326 324 321 315 315 326 335 330 337 333 316 290 271 259 250 243 237 232 231 228
256 255 285 236 292 324 76 279 322 193 256 301 297 298 300 314 319 314 320 323 324 324 323 323 323 321 317 316 313 315 315 318 321 325 326 307 288 266 252 243 238 232 230 230
52 160 271 9 353 62 237 301 287 277 296 296 297 300 302 305 304 313 319 323 326 323 320 323 319 317 317 312 311 310 313 307 302 308 314 316 294 273 258 245 237 233 230 227
192 215 305 310 297 293 298 287 259 277 292 289 288 295 297 300 304 308 311 315 318 319 319 319 318 317 311 310 312 310 307 306 297 285 287 296 295 285 265 248 240 234 231 229
40 261 267 271 281 286 290 277 270 291 292 287 289 291 290 297 302 305 306 309 311 310 310 311 314 312 309 308 308 305 297 292 294 290 279 271 273 271 263 255 250 243 233 229
258 268 271 274 273 281 286 277 286 292 290 292 293 297 296 296 297 298 301 303 303 303 304 306 308 307 305 304 301 300 299 293 289 283 282 276 266 257 257 256 252 247 246 238
255 265 266 275 281 291 286 287 286 289 295 299 299 300 303 300 301 298 297 298 296 297 300 303 302 301 299 299 300 298 295 289 281 283 276 274 268 262 258 254 251 245 241 244
255 268 273 272 278 287 292 291 292 296 298 302 305 306 304 300 300 298 299 298 296 297 297 298 299 296 294 295 294 293 292 288 282 277 275 271 268 259 257 252 253 251 241 242
265 263 268 276 274 285 294 297 299 300 302 307 308 308 302 299 301 298 294 296 294 294 295 297 295 292 295 296 294 289 286 283 280 266 270 270 265 262 257 251 244 241 233 222
256 271 271 283 293 296 301 305 305 305 309 309 309 306 305 300 297 297 298 298 298 297 296 297 296 294 299 299 294 289 287 281 273 271 268 269 268 259 253 247 244 240 230 210
288 294 295 295 302 307 308 309 308 308 313 313 311 313 312 307 303 302 304 305 299 296 297 297 296 298 301 299 294 289 284 279 275 260 260 261 260 255 245 241 236 229 211 201
310 309 307 305 311 308 310 314 310 310 314 313 315 317 315 313 307 304 304 303 300 298 301 301 300 304 301 295 290 288 286 282 270 259 256 258 256 249 241 233 227 212 201 196
300 298 299 300 307 311 310 310 312 315 315 318 321 319 314 310 308 308 306 305 304 306 305 308 308 307 305 300 297 293 286 274 257 252 255 249 245 239 229 217 201 192 185 181
297 302 304 303 305 305 307 312 317 317 321 324 324 317 316 313 314 321 323 320 317 316 320 322 319 317 314 316 306 300 289 263 250 248 243 239 227 217 203 193 185 182 183 174
309 308 308 309 311 313 313 317 317 318 323 323 321 325 324 336 339 335 332 329 333 329 325 326 328 328 324 320 318 311 283 247 232 225 220 212 204 196 188 186 185 182 174 184
316 316 316 315 314 315 317 318 317 319 320 323 327 332 337 342 343 342 341 338 348 348 342 341 342 343 343 345 345 341 213 184 186 187 185 186 185 185 183 184 178 176 182 189
318 317 316 316 316 317 323 320 319 315 318 325 335 341 343 346 345 348 357 349 346 352 349 358 357 355 357 4 19 36 87 138 156 166 172 176 178 179 182 185 187 188 189 189
317 317 317 319 320 318 319 323 316 316 320 331 339 346 349 351 348 348 352 0 356 357 8 10 4 9 17 35 53 70 87 106 128 147 158 166 172 176 180 183 185 187 185 181
322 325 324 323 320 323 322 324 322 323 326 336 347 351 353 1 21 11 9 12 17 18 23 24 29 37 51 59 64 71 80 90 104 118 133 145 155 162 167 167 164 164 166 163
329 326 331 332 329 330 330 334 338 343 354 3 7 10 11 10 10 14 19 28 34 40 46 50 52 57 63 68 73 78 82 85 89 96 104 113 123 132 138 145 149 150 156 166
340 343 338 336 342 346 347 353 4 9 14 22 24 24 24 24 26 28 31 34 40 45 50 54 57 61 65 69 73 78 82 87 93 99 107 115 123 132 140 147 153 159 165 172
16 11 11 17 18 16 14 16 23 24 27 29 31 34 31 29 30 31 35 37 41 45 47 51 54 57 60 66 72 78 85 92 100 108 117 124 131 137 143 149 155 162 170 181
Wind_Speed_850mb
41 31 32 40 49 57 60 52 45 44 49 45 45 29 43 49 59 62 65 66 71 68 66 69 67 66 65 73 80 88 92 95 102 97 101 108 107 105 107 106 111 108 99 95
43 44 33 36 25 30 26 31 41 48 59 40 47 63 64 49 58 63 61 58 58 69 78 81 80 79 80 79 83 89 96 98 98 107 112 107 111 105 104 106 107 102 100 96
40 33 28 30 36 34 41 27 17 17 14 25 37 38 50 39 59 54 53 54 59 63 69 80 86 87 92 91 88 81 84 92 81 86 108 110 103 104 102 106 100 96 94 97
33 34 44 23 4 11 9 16 22 17 17 24 32 48 51 31 62 59 57 50 62 53 75 81 80 85 91 90 88 91 71 67 72 80 88 98 95 99 100 98 92 91 92 91
5 11 23 30 13 12 10 8 17 8 8 18 32 46 22 49 55 56 47 55 61 71 72 83 84 83 86 93 85 85 87 73 69 63 69 84 87 88 88 90 90 92 91 88
5 7 9 4 13 18 14 12 9 8 5 14 29 23 28 58 54 52 64 66 73 70 75 83 80 82 82 80 88 75 78 89 83 66 60 64 68 74 81 85 86 83 88 84
8 8 14 6 16 10 7 14 38 5 9 14 9 21 63 70 63 63 70 76 74 78 82 82 86 83 87 83 84 88 77 75 84 82 67 55 53 60 70 79 80 79 82 85
3 1 18 12 21 3 12 39 38 17 31 33 41 51 55 59 64 71 72 75 79 81 87 91 92 89 87 89 86 85 83 81 68 76 75 63 52 50 59 69 75 75 80 85
16 12 17 62 55 63 39 40 36 32 42 38 44 54 54 64 69 73 75 78 83 91 101 102 102 99 103 97 90 81 83 79 73 59 65 70 62 55 57 67 73 73 78 83
3 23 33 44 53 64 66 47 42 46 48 40 41 51 57 64 76 79 81 87 89 94 102 112 109 115 108 105 99 88 90 91 77 68 66 66 67 65 58 64 69 74 81 86
20 32 44 62 57 56 46 44 52 54 52 56 46 61 58 68 77 81 87 93 94 104 111 120 118 117 117 111 103 102 94 90 90 77 66 69 78 76 75 73 69 72 84 84
29 55 39 41 62 50 40 44 50 50 61 62 58 68 73 86 88 84 90 97 97 103 113 127 124 122 119 113 106 99 93 88 82 81 75 69 68 79 80 82 80 76 82 81
52 73 62 67 52 47 41 41 44 52 62 74 84 78 77 87 98 96 104 105 102 108 113 121 127 124 115 108 100 96 92 85 74 81 84 78 70 77 74 77 74 70 69 70
51 49 42 45 26 36 42 53 62 72 76 75 80 87 80 88 105 99 93 93 95 106 120 115 114 117 105 94 85 84 82 77 72 69 88 84 80 74 65 69 72 76 57 59
32 27 28 39 43 43 48 57 68 77 85 93 85 84 82 85 87 93 90 91 95 99 103 100 102 106 89 78 74 77 79 80 73 63 79 79 73 73 62 63 64 62 60 55
24 29 32 36 46 53 58 63 71 83 84 89 95 100 99 88 87 87 87 85 88 94 94 95 97 91 80 75 75 79 79 76 69 60 76 78 74 69 61 63 60 59 65 80
27 26 40 49 53 61 65 67 65 81 94 97 100 95 90 90 86 82 82 83 85 91 90 89 94 86 77 74 72 71 70 71 58 55 71 75 70 68 62 60 60 62 71 82
26 32 38 47 58 68 77 78 81 83 88 89 87 84 84 81 84 87 84 82 80 80 81 77 64 60 56 54 56 61 59 57 50 59 62 64 59 56 54 55 62 70 75 76
30 39 43 49 54 63 72 77 77 77 77 74 78 82 82 77 77 75 72 70 66 70 67 61 55 50 47 43 37 40 32 36 53 56 52 47 45 46 54 63 71 78 87 86
40 44 50 56 58 59 68 68 67 67 63 64 69 73 76 74 68 68 60 56 56 57 55 51 45 40 35 31 30 21 17 20 29 33 34 37 44 53 64 76 80 81 83 82
48 52 57 59 62 58 55 55 55 57 57 53 54 57 62 65 60 58 54 58 56 52 46 40 35 32 29 24 17 8 1 11 20 28 37 45 51 59 66 68 76 86 89 87
52 54 56 55 55 57 48 45 44 47 45 43 40 44 53 58 59 57 43 47 51 46 42 40 38 33 26 19 14 10 7 11 18 28 36 41 45 53 59 66 72 77 76 73
48 47 47 45 44 45 42 39 37 34 33 30 33 38 42 46 47 58 68 59 51 45 37 37 36 33 24 18 17 15 15 14 17 20 25 30 38 44 50 54 59 61 65 64
39 36 37 34 33 35 37 33 27 22 20 21 24 28 34 37 35 42 44 46 45 43 40 38 35 30 29 30 28 26 24 22 21 21 21 22 26 29 33 39 49 53 52 54
28 29 28 30 29 30 30 25 20 15 14 15 18 20 23 28 36 42 42 43 44 47 49 48 46 44 44 42 41 41 41 39 37 35 35 36 38 42 47 48 45 43 44 45
23 25 24 20 20 24 23 19 17 16 16 17 18 19 21 26 30 33 36 39 41 43 45 46 46 46 46 46 46 45 45 43 40 40 39 40 40 40 40 40 39 39 36 33
19 21 22 19 19 20 19 18 15 17 19 20 19 21 23 26 27 28 30 33 35 38 40 41 43 43 41 39 38 37 36 35 34 33 33 33 33 32 31 29 27 24 21 18
Wind_Direction_850mb
281 293 290 283 286 284 272 262 251 261 276 278 278 351 3 19 34 20 11 5 1 355 353 352 345 334 318 308 302 302 303 284 265 257 260 259 254 253 251 249 248 244 239 234
273 284 279 287 279 269 279 291 281 287 286 32 19 11 4 21 17 11 0 351 347 345 353 352 348 348 343 336 321 308 298 290 290 271 261 261 256 252 251 249 244 241 237 234
272 278 296 283 264 278 277 350 326 312 38 8 6 2 346 7 0 357 346 344 341 342 339 337 338 341 338 338 342 332 298 288 291 285 272 263 256 254 249 246 244 239 235 231
274 293 274 275 234 97 105 101 74 68 43 10 347 333 327 321 347 345 337 337 339 330 326 326 326 327 325 331 336 341 344 313 302 290 282 268 261 253 247 244 244 241 234 232
225 219 279 290 356 19 13 76 56 25 339 333 333 325 324 347 339 326 328 328 324 327 325 319 328 326 319 319 328 334 342 348 331 312 292 274 261 253 248 243 239 234 230 229
326 259 248 100 330 273 242 237 246 208 320 331 336 337 318 333 327 320 320 327 329 330 326 320 326 324 321 315 315 326 335 330 337 333 316 290 271 259 250 243 237 232 231 228
256 255 285 236 292 324 76 279 322 193 256 301 297 298 300 314 319 314 320 323 324 324 323 323 323 321 317 316 313 315 315 318 321 325 326 307 288 266 252 243 238 232 230 230
52 160 271 9 353 62 237 301 287 277 296 296 297 300 302 305 304 313 319 323 326 323 320 323 319 317 317 312 311 310 313 307 302 308 314 316 294 273 258 245 237 233 230 227
192 215 305 310 297 293 298 287 259 277 292 289 288 295 297 300 304 308 311 315 318 319 319 319 318 317 311 310 312 310 307 306 297 285 287 296 295 285 265 248 240 234 231 229
40 261 267 271 281 286 290 277 270 291 292 287 289 291 290 297 302 305 306 309 311 310 310 311 314 312 309 308 308 305 297 292 294 290 279 271 273 271 263 255 250 243 233 229
258 268 271 274 273 281 286 277 286 292 290 292 293 297 296 296 297 298 301 303 303 303 304 306 308 307 305 304 301 300 299 293 289 283 282 276 266 257 257 256 252 247 246 238
255 265 266 275 281 291 286 287 286 289 295 299 299 300 303 300 301 298 297 298 296 297 300 303 302 301 299 299 300 298 295 289 281 283 276 274 268 262 258 254 251 245 241 244
255 268 273 272 278 287 292 291 292 296 298 302 305 306 304 300 300 298 299 298 296 297 297 298 299 296 294 295 294 293 292 288 282 277 275 271 268 259 257 252 253 251 241 242
265 263 268 276 274 285 294 297 299 300 302 307 308 308 302 299 301 298 294 296 294 294 295 297 295 292 295 296 294 289 286 283 280 266 270 270 265 262 257 251 244 241 233 222
256 271 271 283 293 296 301 305 305 305 309 309 309 306 305 300 297 297 298 298 298 297 296 297 296 294 299 299 294 289 287 281 273 271 268 269 268 259 253 247 244 240 230 210
288 294 295 295 302 307 308 309 308 308 313 313 311 313 312 307 303 302 304 305 299 296 297 297 296 298 301 299 294 289 284 279 275 260 260 261 260 255 245 241 236 229 211 201
310 309 307 305 311 308 310 314 310 310 314 313 315 317 315 313 307 304 304 303 300 298 301 301 300 304 301 295 290 288 286 282 270 259 256 258 256 249 241 233 227 212 201 196
300 298 299 300 307 311 310 310 312 315 315 318 321 319 314 310 308 308 306 305 304 306 305 308 308 307 305 300 297 293 286 274 257 252 255 249 245 239 229 217 201 192 185 181
297 302 304 303 305 305 307 312 317 317 321 324 324 317 316 313 314 321 323 320 317 316 320 322 319 317 314 316 306 300 289 263 250 248 243 239 227 217 203 193 185 182 183 174
309 308 308 309 311 313 313 317 317 318 323 323 321 325 324 336 339 335 332 329 333 329 325 326 328 328 324 320 318 311 283 247 232 225 220 212 204 196 188 186 185 182 174 184
316 316 316 315 314 315 317 318 317 319 320 323 327 332 337 342 343 342 341 338 348 348 342 341 342 343 343 345 345 341 213 184 186 187 185 186 185 185 183 184 178 176 182 189
318 317 316 316 316 317 323 320 319 315 318 325 335 341 343 346 345 348 357 349 346 352 349 358 357 355 357 4 19 36 87 138 156 166 172 176 178 179 182 185 187 188 189 189
317 317 317 319 320 318 319 323 316 316 320 331 339 346 349 351 348 348 352 0 356 357 8 10 4 9 17 35 53 70 87 106 128 147 158 166 172 176 180 183 185 187 185 181
322 325 324 323 320 323 322 324 322 323 326 336 347 351 353 1 21 11 9 12 17 18 23 24 29 37 51 59 64 71 80 90 104 118 133 145 155 162 167 167 164 164 166 163
329 326 331 332 329 330 330 334 338 343 354 3 7 10 11 10 10 14 19 28 34 40 46 50 52 57 63 68 73 78 82 85 89 96 104 113 123 132 138 145 149 150 156 166
340 343 338 336 342 346 347 353 4 9 14 22 24 24 24 24 26 28 31 34 40 45 50 54 57 61 65 69 73 78 82 87 93 99 107 115 123 132 140 147 153 159 165 172
16 11 11 17 18 16 14 16 23 24 27 29 31 34 31 29 30 31 35 37 41 45 47 51 54 57 60 66 72 78 85 92 100 108 117 124 131 137 143 149 155 162 170 181